| time (UTC) | temp F | wind direction | speed MPH | gust MPH | rain 1hr in | rain 24hr in | rain mn in | humidity % | barometer mb |
| 20260505101809 | 38 | 124 | 0.0 | 2.0 | 0.00 | 0.05 | 0.05 | 99 | 1016.4 |
| 20260505101304 | 38 | 151 | 0.0 | 3.0 | 0.00 | 0.05 | 0.05 | 99 | 1016.6 |
| 20260505100801 | 38 | 109 | 0.0 | 4.0 | 0.00 | 0.05 | 0.05 | 99 | 1016.3 |
| 20260505100257 | 38 | 131 | 0.0 | 3.0 | 0.00 | 0.05 | 0.05 | 99 | 1016.3 |
| 20260505095753 | 39 | 233 | 2.0 | 3.0 | 0.00 | 0.05 | 0.05 | 99 | 1016.4 |
| 20260505095251 | 39 | 269 | 0.0 | 2.0 | 0.00 | 0.05 | 0.05 | 99 | 1016.6 |
| 20260505094746 | 39 | 169 | 3.0 | 3.0 | 0.00 | 0.05 | 0.05 | 99 | 1016.7 |
| 20260505094243 | 39 | 237 | 0.0 | 3.0 | 0.00 | 0.05 | 0.05 | 99 | 1016.4 |
| 20260505093739 | 39 | 178 | 1.0 | 3.0 | 0.00 | 0.05 | 0.05 | 99 | 1016.7 |
| 20260505093237 | 39 | 139 | 1.0 | 3.0 | 0.00 | 0.05 | 0.05 | 99 | 1016.8 |
| 20260505092734 | 39 | 129 | 1.0 | 2.0 | 0.00 | 0.05 | 0.05 | 99 | 1016.7 |
| 20260505092232 | 39 | 79 | 1.0 | 3.0 | 0.00 | 0.05 | 0.05 | 99 | 1016.8 |
| 20260505091729 | 39 | 197 | 1.0 | 3.0 | 0.00 | 0.05 | 0.05 | 99 | 1016.7 |
| 20260505091228 | 39 | 89 | 0.0 | 1.0 | 0.00 | 0.05 | 0.05 | 99 | 1016.8 |
| 20260505090725 | 39 | 241 | 2.0 | 3.0 | 0.00 | 0.05 | 0.05 | 99 | 1016.8 |
| 20260505090223 | 39 | 114 | 0.0 | 3.0 | 0.00 | 0.05 | 0.05 | 99 | 1016.8 |
| 20260505085720 | 39 | 257 | 3.0 | 6.0 | 0.00 | 0.05 | 0.05 | 99 | 1016.3 |
| 20260505085218 | 39 | 135 | 0.0 | 2.0 | 0.00 | 0.05 | 0.05 | 99 | 1016.8 |
| 20260505084715 | 39 | 119 | 0.0 | 1.0 | 0.00 | 0.05 | 0.05 | 99 | 1016.8 |
| 20260505084214 | 39 | 254 | 0.0 | 2.0 | 0.00 | 0.05 | 0.05 | 99 | 1016.8 |
| 20260505083710 | 39 | 224 | 0.0 | 2.0 | 0.00 | 0.05 | 0.05 | 99 | 1016.9 |
| 20260505083207 | 39 | 113 | 0.0 | 2.0 | 0.00 | 0.05 | 0.05 | 99 | 1017.0 |
| 20260505082703 | 39 | 174 | 0.0 | 3.0 | 0.00 | 0.05 | 0.05 | 99 | 1017.2 |
| 20260505082201 | 39 | 192 | 1.0 | 2.0 | 0.00 | 0.05 | 0.05 | 99 | 1016.8 |
| 20260505081656 | 39 | 13 | 2.0 | 3.0 | 0.00 | 0.05 | 0.05 | 99 | 1017.2 |
| 20260505081154 | 39 | 44 | 0.0 | 2.0 | 0.00 | 0.05 | 0.05 | 99 | 1017.3 |
| 20260505080651 | 39 | 221 | 1.0 | 6.0 | 0.02 | 0.05 | 0.05 | 99 | 1017.0 |
| 20260505080146 | 39 | 57 | 0.0 | 4.0 | 0.02 | 0.04 | 0.04 | 99 | 1017.0 |
| 20260505075642 | 39 | 239 | 3.0 | 5.0 | 0.02 | 0.04 | 0.04 | 99 | 1016.9 |
| 20260505075139 | 39 | 241 | 2.0 | 5.0 | 0.00 | 0.04 | 0.04 | 99 | 1017.0 |
| 20260505074636 | 39 | 255 | 2.0 | 6.0 | 0.00 | 0.04 | 0.04 | 99 | 1016.9 |
| 20260505074133 | 39 | 235 | 2.0 | 8.0 | 0.00 | 0.04 | 0.04 | 99 | 1016.8 |
| 20260505073631 | 39 | 233 | 3.0 | 4.0 | 0.05 | 0.04 | 0.04 | 99 | 1016.8 |
| 20260505073129 | 39 | 203 | 0.0 | 4.0 | 0.09 | 0.04 | 0.04 | 99 | 1016.9 |
| 20260505072624 | 39 | 230 | 2.0 | 3.0 | 0.07 | 0.03 | 0.03 | 99 | 1016.9 |
| 20260505072121 | 39 | 100 | 0.0 | 2.0 | 0.09 | 0.02 | 0.02 | 99 | 1017.0 |
| 20260505071617 | 39 | 150 | 2.0 | 4.0 | 0.12 | 0.02 | 0.02 | 99 | 1017.5 |
| 20260505071115 | 39 | 115 | 3.0 | 6.0 | 0.05 | 0.01 | 0.01 | 99 | 1017.5 |
| 20260505070612 | 39 | 70 | 4.0 | 5.0 | 0.00 | 0.00 | 0.00 | 99 | 1017.4 |
| 20260505070108 | 39 | 226 | 1.0 | 3.0 | 0.02 | 0.00 | 0.00 | 99 | 1017.0 |
| 20260505065604 | 39 | 61 | 3.0 | 4.0 | 0.05 | 0.47 | 0.47 | 99 | 1017.3 |
| 20260505065101 | 39 | 266 | 0.0 | 3.0 | 0.09 | 0.47 | 0.47 | 99 | 1017.0 |
| 20260505064558 | 39 | 67 | 3.0 | 11.0 | 0.12 | 0.46 | 0.46 | 99 | 1017.2 |
| 20260505064056 | 39 | 323 | 4.0 | 7.0 | 0.09 | 0.45 | 0.45 | 99 | 1016.7 |
| 20260505063553 | 39 | 192 | 2.0 | 3.0 | 0.05 | 0.44 | 0.44 | 99 | 1016.8 |
| 20260505063049 | 39 | 60 | 0.0 | 5.0 | 0.02 | 0.43 | 0.43 | 99 | 1016.7 |
| 20260505062545 | 39 | 126 | 2.0 | 3.0 | 0.02 | 0.43 | 0.43 | 99 | 1016.7 |
| 20260505062043 | 39 | 132 | 2.0 | 3.0 | 0.00 | 0.42 | 0.42 | 99 | 1016.8 |
| 20260505061540 | 39 | 149 | 0.0 | 3.0 | 0.00 | 0.42 | 0.42 | 99 | 1016.9 |
| 20260505061038 | 39 | 147 | 0.0 | 2.0 | 0.00 | 0.42 | 0.42 | 99 | 1016.8 |
| 20260505060535 | 39 | 181 | 0.0 | 2.0 | 0.00 | 0.42 | 0.42 | 99 | 1016.7 |
| 20260505060032 | 39 | 138 | 2.0 | 2.0 | 0.00 | 0.42 | 0.42 | 99 | 1016.7 |
| 20260505055527 | 39 | 310 | 2.0 | 4.0 | 0.00 | 0.42 | 0.42 | 99 | 1016.7 |
| 20260505055024 | 39 | 251 | 2.0 | 5.0 | 0.00 | 0.42 | 0.42 | 99 | 1016.8 |
| 20260505054521 | 39 | 156 | 0.0 | 8.0 | 0.00 | 0.42 | 0.42 | 99 | 1016.9 |
| 20260505054020 | 39 | 237 | 2.0 | 4.0 | 0.00 | 0.42 | 0.42 | 99 | 1016.9 |
| 20260505053516 | 39 | 252 | 2.0 | 4.0 | 0.00 | 0.42 | 0.42 | 99 | 1016.8 |
| 20260505053013 | 39 | 193 | 1.0 | 4.0 | 0.00 | 0.42 | 0.42 | 99 | 1017.2 |
| 20260505052510 | 39 | 308 | 0.0 | 6.0 | 0.02 | 0.42 | 0.42 | 99 | 1017.3 |
| 20260505052008 | 39 | 68 | 1.0 | 4.0 | 0.02 | 0.42 | 0.42 | 99 | 1017.2 |
| 20260505051504 | 39 | 185 | 0.0 | 2.0 | 0.00 | 0.42 | 0.42 | 99 | 1017.2 |
| 20260505051003 | 39 | 58 | 0.0 | 4.0 | 0.00 | 0.42 | 0.42 | 99 | 1017.2 |
| 20260505050500 | 39 | 89 | 0.0 | 5.0 | 0.00 | 0.42 | 0.42 | 99 | 1017.2 |
| 20260505041428 | 40 | 148 | 0.0 | 2.0 | 0.00 | 0.42 | 0.42 | 99 | 1016.9 |
| 20260505040925 | 40 | 195 | 0.0 | 2.0 | 0.00 | 0.42 | 0.42 | 99 | 1017.0 |
| 20260505040423 | 40 | 325 | 0.0 | 3.0 | 0.00 | 0.42 | 0.42 | 98 | 1016.9 |
| 20260505035919 | 40 | 201 | 2.0 | 2.0 | 0.00 | 0.42 | 0.42 | 98 | 1016.7 |
| 20260505035415 | 40 | 292 | 1.0 | 4.0 | 0.00 | 0.42 | 0.42 | 98 | 1016.4 |
| 20260505034913 | 40 | 173 | 0.0 | 3.0 | 0.00 | 0.42 | 0.42 | 99 | 1016.3 |
| 20260505034409 | 40 | 256 | 0.0 | 6.0 | 0.00 | 0.42 | 0.42 | 99 | 1016.4 |
| 20260505033906 | 40 | 250 | 2.0 | 4.0 | 0.00 | 0.42 | 0.42 | 99 | 1016.2 |
| 20260505033403 | 39 | 220 | 0.0 | 2.0 | 0.00 | 0.42 | 0.42 | 99 | 1016.1 |
| 20260505032901 | 39 | 222 | 2.0 | 5.0 | 0.00 | 0.42 | 0.42 | 98 | 1016.1 |
| 20260505032357 | 39 | 245 | 2.0 | 6.0 | 0.00 | 0.42 | 0.42 | 98 | 1016.4 |
| 20260505031854 | 39 | 264 | 0.0 | 3.0 | 0.00 | 0.42 | 0.42 | 98 | 1016.6 |
| 20260505031351 | 39 | 232 | 2.0 | 5.0 | 0.00 | 0.42 | 0.42 | 99 | 1016.6 |
| 20260505030848 | 39 | 251 | 3.0 | 4.0 | 0.02 | 0.42 | 0.42 | 98 | 1016.9 |
| 20260505030344 | 39 | 253 | 0.0 | 5.0 | 0.00 | 0.42 | 0.42 | 98 | 1016.9 |
| 20260505025839 | 39 | 332 | 2.0 | 4.0 | 0.00 | 0.42 | 0.42 | 98 | 1017.3 |
| 20260505025337 | 40 | 273 | 2.0 | 7.0 | 0.00 | 0.42 | 0.42 | 98 | 1016.9 |
| 20260505024836 | 40 | 157 | 1.0 | 7.0 | 0.02 | 0.42 | 0.42 | 99 | 1017.0 |
| 20260505024333 | 40 | 298 | 3.0 | 9.0 | 0.02 | 0.41 | 0.41 | 99 | 1016.7 |
| 20260505023830 | 40 | 113 | 0.0 | 2.0 | 0.02 | 0.41 | 0.41 | 99 | 1016.8 |
| 20260505023327 | 40 | 253 | 2.0 | 3.0 | 0.00 | 0.41 | 0.41 | 99 | 1016.7 |
| 20260505022824 | 40 | 159 | 2.0 | 5.0 | 0.00 | 0.41 | 0.41 | 99 | 1016.7 |
| 20260505022321 | 40 | 227 | 1.0 | 4.0 | 0.00 | 0.41 | 0.41 | 99 | 1016.3 |
| 20260505021819 | 40 | 163 | 0.0 | 4.0 | 0.00 | 0.41 | 0.41 | 98 | 1015.8 |
| 20260505021315 | 40 | 15 | 0.0 | 3.0 | 0.00 | 0.41 | 0.41 | 98 | 1016.2 |
| 20260505020811 | 40 | 194 | 0.0 | 6.0 | 0.00 | 0.41 | 0.41 | 98 | 1016.2 |
| 20260505020307 | 40 | 128 | 2.0 | 4.0 | 0.00 | 0.41 | 0.41 | 98 | 1016.2 |
| 20260505015804 | 40 | 256 | 2.0 | 10.0 | 0.00 | 0.41 | 0.41 | 98 | 1015.8 |
| 20260505015301 | 40 | 281 | 3.0 | 10.0 | 0.00 | 0.41 | 0.41 | 98 | 1015.1 |
| 20260505014758 | 40 | 141 | 4.0 | 9.0 | 0.05 | 0.41 | 0.41 | 98 | 1014.7 |
| 20260505014255 | 40 | 150 | 2.0 | 13.0 | 0.19 | 0.41 | 0.41 | 98 | 1015.1 |
| 20260505013751 | 40 | 283 | 3.0 | 10.0 | 0.28 | 0.40 | 0.40 | 98 | 1016.2 |
| 20260505013249 | 41 | 165 | 1.0 | 9.0 | 0.26 | 0.37 | 0.37 | 97 | 1016.9 |
| 20260505012747 | 41 | 230 | 2.0 | 5.0 | 0.14 | 0.35 | 0.35 | 97 | 1017.3 |
| 20260505012244 | 41 | 242 | 0.0 | 3.0 | 0.14 | 0.33 | 0.33 | 97 | 1017.8 |
| 20260505011739 | 41 | 201 | 0.0 | 4.0 | 0.12 | 0.32 | 0.32 | 97 | 1017.2 |
| 20260505011237 | 41 | 266 | 1.0 | 3.0 | 0.14 | 0.31 | 0.31 | 96 | 1017.4 |
| 20260505010732 | 41 | 263 | 0.0 | 4.0 | 0.26 | 0.30 | 0.30 | 96 | 1017.4 |
| 20260505010229 | 42 | 185 | 1.0 | 3.0 | 0.24 | 0.28 | 0.28 | 96 | 1017.3 |
| 20260505005725 | 41 | 60 | 0.0 | 1.0 | 0.19 | 0.25 | 0.25 | 96 | 1017.3 |
| 20260505005222 | 41 | 102 | 1.0 | 4.0 | 0.12 | 0.23 | 0.23 | 96 | 1017.0 |
| 20260505004720 | 41 | 282 | 1.0 | 3.0 | 0.09 | 0.22 | 0.22 | 96 | 1017.0 |
| 20260505004216 | 41 | 10 | 1.0 | 3.0 | 0.05 | 0.21 | 0.21 | 95 | 1017.3 |
| 20260505003713 | 41 | 135 | 2.0 | 5.0 | 0.05 | 0.20 | 0.20 | 95 | 1017.2 |
| 20260505003211 | 41 | 122 | 7.0 | 11.0 | 0.05 | 0.20 | 0.20 | 95 | 1016.8 |
| 20260505002707 | 41 | 151 | 2.0 | 6.0 | 0.05 | 0.19 | 0.19 | 96 | 1016.6 |
| 20260505002205 | 41 | 93 | 2.0 | 10.0 | 0.05 | 0.19 | 0.19 | 96 | 1016.4 |
| 20260505001702 | 41 | 184 | 3.0 | 6.0 | 0.19 | 0.18 | 0.18 | 96 | 1016.4 |
| 20260505001159 | 41 | 223 | 4.0 | 7.0 | 0.21 | 0.18 | 0.18 | 96 | 1016.3 |
| 20260505000656 | 42 | 177 | 4.0 | 7.0 | 0.12 | 0.15 | 0.15 | 95 | 1016.2 |
| 20260505000154 | 42 | 125 | 4.0 | 7.0 | 0.07 | 0.14 | 0.14 | 95 | 1016.1 |
| 20260504235650 | 42 | 135 | 4.0 | 7.0 | 0.05 | 0.13 | 0.13 | 94 | 1016.0 |
| 20260504235146 | 42 | 256 | 4.0 | 8.0 | 0.14 | 0.13 | 0.13 | 94 | 1016.2 |
| 20260504234644 | 42 | 186 | 6.0 | 11.0 | 0.07 | 0.11 | 0.11 | 94 | 1016.0 |
| 20260504234141 | 42 | 119 | 2.0 | 8.0 | 0.07 | 0.10 | 0.10 | 93 | 1015.8 |
| 20260504233636 | 42 | 313 | 3.0 | 11.0 | 0.09 | 0.10 | 0.10 | 94 | 1015.8 |
| 20260504233127 | 42 | 206 | 4.0 | 16.0 | 0.19 | 0.09 | 0.09 | 94 | 1016.0 |
| 20260504232625 | 42 | 239 | 7.0 | 12.0 | 0.21 | 0.08 | 0.08 | 93 | 1015.8 |
| 20260504232122 | 43 | 267 | 10.0 | 12.0 | 0.05 | 0.05 | 0.05 | 91 | 1016.1 |
| 20260504231619 | 43 | 185 | 3.0 | 8.0 | 0.05 | 0.05 | 0.05 | 90 | 1016.2 |
| 20260504231115 | 44 | 321 | 3.0 | 9.0 | 0.07 | 0.04 | 0.04 | 89 | 1016.0 |
| 20260504230611 | 45 | 319 | 2.0 | 8.0 | 0.05 | 0.04 | 0.04 | 85 | 1015.7 |
| 20260504230110 | 46 | 251 | 3.0 | 10.0 | 0.02 | 0.03 | 0.03 | 82 | 1015.8 |
| 20260504225608 | 47 | 144 | 2.0 | 6.0 | 0.00 | 0.03 | 0.03 | 78 | 1016.3 |
| 20260504225104 | 47 | 190 | 3.0 | 5.0 | 0.00 | 0.03 | 0.03 | 74 | 1016.1 |
| 20260504224601 | 47 | 341 | 2.0 | 11.0 | 0.00 | 0.03 | 0.03 | 74 | 1016.2 |
| 20260504224058 | 47 | 268 | 5.0 | 10.0 | 0.00 | 0.03 | 0.03 | 74 | 1016.1 |
| 20260504223555 | 48 | 237 | 5.0 | 9.0 | 0.00 | 0.03 | 0.03 | 75 | 1016.2 |
| 20260504223050 | 49 | 74 | 0.0 | 7.0 | 0.00 | 0.03 | 0.03 | 75 | 1016.1 |
| 20260504222547 | 49 | 254 | 2.0 | 9.0 | 0.00 | 0.03 | 0.03 | 74 | 1016.4 |
| 20260504222045 | 50 | 356 | 2.0 | 5.0 | 0.00 | 0.03 | 0.03 | 71 | 1016.2 |
| 20260504221542 | 49 | 97 | 3.0 | 8.0 | 0.00 | 0.03 | 0.03 | 72 | 1016.3 |
| 20260504221039 | 49 | 303 | 3.0 | 6.0 | 0.00 | 0.03 | 0.03 | 73 | 1016.2 |
| 20260504220535 | 49 | 103 | 2.0 | 10.0 | 0.00 | 0.03 | 0.03 | 74 | 1016.4 |
| 20260504220032 | 48 | 284 | 4.0 | 9.0 | 0.00 | 0.03 | 0.03 | 75 | 1016.6 |
| 20260504215528 | 48 | 271 | 5.0 | 13.0 | 0.00 | 0.03 | 0.03 | 75 | 1016.4 |
| 20260504215026 | 48 | 296 | 4.0 | 8.0 | 0.00 | 0.03 | 0.03 | 76 | 1016.6 |
| 20260504214522 | 49 | 186 | 5.0 | 9.0 | 0.00 | 0.03 | 0.03 | 75 | 1016.6 |
| 20260504214018 | 49 | 266 | 4.0 | 7.0 | 0.00 | 0.03 | 0.03 | 75 | 1016.6 |
| 20260504213515 | 49 | 88 | 1.0 | 8.0 | 0.00 | 0.03 | 0.03 | 73 | 1016.9 |
| 20260504213012 | 50 | 330 | 0.0 | 10.0 | 0.00 | 0.03 | 0.03 | 71 | 1016.9 |
| 20260504212508 | 51 | 266 | 3.0 | 8.0 | 0.00 | 0.03 | 0.03 | 69 | 1017.0 |
| 20260504212006 | 52 | 234 | 4.0 | 13.0 | 0.00 | 0.03 | 0.03 | 70 | 1016.9 |
| 20260504211502 | 52 | 312 | 5.0 | 9.0 | 0.00 | 0.03 | 0.03 | 74 | 1017.0 |
| 20260504211000 | 51 | 301 | 4.0 | 12.0 | 0.00 | 0.03 | 0.03 | 76 | 1016.9 |
| 20260504210456 | 51 | 292 | 6.0 | 12.0 | 0.00 | 0.03 | 0.03 | 76 | 1017.2 |
| 20260504205953 | 50 | 277 | 7.0 | 12.0 | 0.00 | 0.03 | 0.03 | 79 | 1017.0 |
| 20260504205450 | 48 | 28 | 2.0 | 13.0 | 0.00 | 0.03 | 0.03 | 81 | 1017.2 |
| 20260504204949 | 47 | 211 | 6.0 | 14.0 | 0.00 | 0.03 | 0.03 | 82 | 1017.3 |
| 20260504204447 | 47 | 298 | 3.0 | 10.0 | 0.00 | 0.03 | 0.03 | 82 | 1017.2 |
| 20260504203945 | 47 | 249 | 4.0 | 13.0 | 0.00 | 0.03 | 0.03 | 81 | 1017.3 |
| 20260504203443 | 48 | 170 | 5.0 | 12.0 | 0.00 | 0.03 | 0.03 | 81 | 1017.0 |
| 20260504202939 | 48 | 272 | 6.0 | 13.0 | 0.00 | 0.03 | 0.03 | 82 | 1017.2 |
| 20260504202435 | 48 | 202 | 5.0 | 9.0 | 0.00 | 0.03 | 0.03 | 88 | 1017.0 |
| 20260504201932 | 46 | 245 | 2.0 | 8.0 | 0.02 | 0.03 | 0.03 | 89 | 1017.3 |
| 20260504201430 | 46 | 269 | 4.0 | 7.0 | 0.05 | 0.03 | 0.03 | 87 | 1017.3 |
| 20260504200927 | 47 | 125 | 2.0 | 5.0 | 0.02 | 0.02 | 0.02 | 86 | 1017.8 |
| 20260504200424 | 46 | 271 | 2.0 | 7.0 | 0.00 | 0.02 | 0.02 | 84 | 1017.7 |
| 20260504195920 | 47 | 85 | 3.0 | 6.0 | 0.00 | 0.02 | 0.02 | 84 | 1017.8 |
| 20260504195416 | 48 | 129 | 8.0 | 8.0 | 0.00 | 0.02 | 0.02 | 85 | 1017.7 |
| 20260504194913 | 47 | 183 | 2.0 | 7.0 | 0.00 | 0.02 | 0.02 | 85 | 1017.7 |
| 20260504194409 | 46 | 136 | 3.0 | 4.0 | 0.00 | 0.02 | 0.02 | 86 | 1017.5 |
| 20260504193905 | 46 | 132 | 3.0 | 5.0 | 0.00 | 0.02 | 0.02 | 84 | 1017.7 |
| 20260504193403 | 46 | 288 | 0.0 | 4.0 | 0.00 | 0.02 | 0.02 | 84 | 1017.7 |
| 20260504192901 | 46 | 146 | 1.0 | 5.0 | 0.00 | 0.02 | 0.02 | 83 | 1018.0 |
| 20260504192358 | 47 | 133 | 3.0 | 5.0 | 0.00 | 0.02 | 0.02 | 82 | 1018.0 |
| 20260504191856 | 47 | 143 | 2.0 | 3.0 | 0.02 | 0.02 | 0.02 | 82 | 1018.1 |
| 20260504191354 | 47 | 129 | 3.0 | 4.0 | 0.02 | 0.02 | 0.02 | 83 | 1017.9 |
| 20260504190849 | 47 | 128 | 2.0 | 3.0 | 0.00 | 0.02 | 0.02 | 84 | 1017.9 |
| 20260504190345 | 48 | 184 | 1.0 | 3.0 | 0.00 | 0.02 | 0.02 | 85 | 1017.9 |
| 20260504185842 | 47 | 342 | 2.0 | 5.0 | 0.00 | 0.02 | 0.02 | 83 | 1018.1 |
| 20260504185339 | 48 | 129 | 2.0 | 3.0 | 0.02 | 0.02 | 0.02 | 87 | 1018.0 |
| 20260504184835 | 47 | 169 | 0.0 | 3.0 | 0.05 | 0.02 | 0.02 | 83 | 1017.8 |
| 20260504184331 | 47 | 224 | 0.0 | 3.0 | 0.05 | 0.01 | 0.01 | 81 | 1018.1 |
| 20260504183827 | 47 | 346 | 1.0 | 5.0 | 0.02 | 0.01 | 0.01 | 83 | 1017.9 |
| 20260504183325 | 46 | 299 | 2.0 | 4.0 | 0.00 | 0.00 | 0.00 | 83 | 1018.0 |
| 20260504182822 | 45 | 147 | 0.0 | 3.0 | 0.02 | 0.00 | 0.00 | 82 | 1018.0 |
| 20260504182320 | 46 | 261 | 2.0 | 4.0 | 0.00 | 0.00 | 0.00 | 82 | 1017.8 |
| 20260504181817 | 46 | 230 | 2.0 | 3.0 | 0.00 | 0.00 | 0.00 | 81 | 1018.0 |
| 20260504181314 | 46 | 127 | 0.0 | 6.0 | 0.00 | 0.00 | 0.00 | 80 | 1017.8 |
| 20260504180813 | 46 | 227 | 1.0 | 2.0 | 0.00 | 0.00 | 0.00 | 81 | 1017.8 |
| 20260504180311 | 45 | 207 | 0.0 | 6.0 | 0.00 | 0.00 | 0.00 | 81 | 1017.8 |
| 20260504175809 | 46 | 295 | 0.0 | 7.0 | 0.00 | 0.00 | 0.00 | 81 | 1017.8 |
| 20260504175305 | 45 | 48 | 1.0 | 5.0 | 0.00 | 0.00 | 0.00 | 81 | 1018.0 |
| 20260504174804 | 46 | 299 | 3.0 | 8.0 | 0.00 | 0.00 | 0.00 | 80 | 1017.7 |
| 20260504174301 | 45 | 31 | 2.0 | 5.0 | 0.00 | 0.00 | 0.00 | 80 | 1017.7 |
| 20260504173757 | 45 | 103 | 0.0 | 7.0 | 0.00 | 0.00 | 0.00 | 81 | 1017.7 |
| 20260504173254 | 45 | 80 | 0.0 | 6.0 | 0.00 | 0.00 | 0.00 | 81 | 1017.7 |
| 20260504172751 | 44 | 339 | 3.0 | 7.0 | 0.00 | 0.00 | 0.00 | 81 | 1017.8 |
| 20260504172247 | 44 | 344 | 3.0 | 6.0 | 0.00 | 0.00 | 0.00 | 82 | 1017.5 |
| 20260504171743 | 45 | 334 | 2.0 | 10.0 | 0.00 | 0.00 | 0.00 | 80 | 1017.7 |
| 20260504171241 | 46 | 338 | 2.0 | 8.0 | 0.00 | 0.00 | 0.00 | 76 | 1017.7 |
| 20260504170738 | 46 | 347 | 3.0 | 6.0 | 0.00 | 0.00 | 0.00 | 75 | 1017.4 |
| 20260504170235 | 47 | 224 | 1.0 | 4.0 | 0.00 | 0.00 | 0.00 | 76 | 1017.9 |
| 20260504160153 | 46 | 172 | 2.0 | 6.0 | 0.00 | 0.00 | 0.00 | 73 | 1017.8 |
| 20260504151121 | 45 | 21 | 0.0 | 3.0 | 0.00 | 0.00 | 0.00 | 70 | 1017.5 |
| 20260504150618 | 45 | 125 | 3.0 | 5.0 | 0.00 | 0.00 | 0.00 | 71 | 1017.3 |
| 20260504150115 | 45 | 97 | 1.0 | 5.0 | 0.00 | 0.00 | 0.00 | 70 | 1017.3 |
| 20260504141043 | 45 | 216 | 2.0 | 7.0 | 0.00 | 0.00 | 0.00 | 69 | 1016.9 |
| 20260504140540 | 44 | 186 | 0.0 | 4.0 | 0.00 | 0.00 | 0.00 | 71 | 1016.9 |
| 20260504130459 | 41 | 53 | 0.0 | 2.0 | 0.00 | 0.00 | 0.00 | 77 | 1017.0 |
| 20260504110340 | 42 | 142 | 0.0 | 5.0 | 0.00 | 0.00 | 0.00 | 79 | 1017.8 |